Time,TemperatureF,DewpointF,PressureIn,WindDirection,WindDirectionDegrees,WindSpeedMPH,WindSpeedGustMPH,Humidity,HourlyPrecipIn,Conditions,Clouds,dailyrainin,SoftwareType,DateUTC
2013-06-03 00:00:00,64.2,64.2,29.86,SSE,165,0.0,1.0,100,0.00,,CLR,0.00,VWS V14.01,2013-06-03 04:00:00,
2013-06-03 00:01:00,64.4,64.4,29.86,SSE,165,2.0,2.0,100,0.00,,CLR,0.00,VWS V14.01,2013-06-03 04:01:00,
2013-06-03 00:06:00,64.2,64.2,29.87,SSW,198,4.0,4.0,100,0.00,,FEW095,0.00,VWS V14.01,2013-06-03 04:06:00,
2013-06-03 00:11:00,64.0,64.0,29.86,SE,137,2.0,5.0,100,0.00,,FEW095,0.00,VWS V14.01,2013-06-03 04:11:00,
2013-06-03 00:16:00,64.0,64.0,29.86,SSE,163,3.0,3.0,100,0.00,,FEW095,0.00,VWS V14.01,2013-06-03 04:16:00,
2013-06-03 00:22:00,63.9,63.9,29.86,SSE,153,0.0,5.0,100,0.00,,FEW095,0.00,VWS V14.01,2013-06-03 04:22:00,
2013-06-03 00:27:00,63.8,63.8,29.86,SE,131,3.0,4.0,100,0.00,,FEW095,0.00,VWS V14.01,2013-06-03 04:27:00,
2013-06-03 00:32:00,63.8,63.8,29.86,South,189,5.0,5.0,100,0.00,,FEW095,0.00,VWS V14.01,2013-06-03 04:32:00,
2013-06-03 00:37:00,63.8,63.8,29.86,SSE,161,0.0,1.0,100,0.00,,FEW095,0.00,VWS V14.01,2013-06-03 04:37:00,
2013-06-03 00:42:00,63.9,63.9,29.86,SSE,156,0.0,5.0,100,0.00,,FEW095,0.00,VWS V14.01,2013-06-03 04:42:00,
2013-06-03 00:47:00,63.8,63.8,29.86,SE,138,1.0,2.0,100,0.00,,FEW095,0.00,VWS V14.01,2013-06-03 04:47:00,
2013-06-03 00:52:00,63.7,63.7,29.86,SSE,154,3.0,5.0,100,0.00,,FEW095,0.00,VWS V14.01,2013-06-03 04:52:00,
2013-06-03 00:57:00,63.5,63.5,29.86,SSE,153,1.0,2.0,100,0.00,,FEW095,0.00,VWS V14.01,2013-06-03 04:57:00,
2013-06-03 01:02:00,63.5,63.5,29.86,SSE,150,2.0,4.0,100,0.00,,FEW095,0.00,VWS V14.01,2013-06-03 05:02:00,
2013-06-03 01:07:00,63.4,63.4,29.85,SE,142,0.0,2.0,100,0.00,,FEW085,0.00,VWS V14.01,2013-06-03 05:07:00,
2013-06-03 01:12:00,63.4,63.4,29.85,SE,143,0.0,1.0,100,0.00,,FEW085,0.00,VWS V14.01,2013-06-03 05:12:00,
2013-06-03 01:17:00,63.4,63.4,29.85,SE,144,0.0,0.0,100,0.00,,FEW085,0.00,VWS V14.01,2013-06-03 05:17:00,
2013-06-03 01:22:00,63.5,63.5,29.85,SE,144,0.0,2.0,100,0.00,,FEW085,0.00,VWS V14.01,2013-06-03 05:22:00,
2013-06-03 01:27:00,63.5,63.5,29.86,SE,144,3.0,3.0,100,0.00,,FEW085,0.00,VWS V14.01,2013-06-03 05:27:00,
2013-06-03 01:32:00,63.4,63.4,29.86,SE,143,3.0,4.0,100,0.00,,FEW085,0.00,VWS V14.01,2013-06-03 05:32:00,
2013-06-03 01:37:00,63.3,63.3,29.86,South,187,0.0,4.0,100,0.00,,FEW085,0.00,VWS V14.01,2013-06-03 05:37:00,
2013-06-03 01:42:00,63.2,63.2,29.86,SSW,192,0.0,3.0,100,0.00,,FEW085,0.00,VWS V14.01,2013-06-03 05:42:00,
2013-06-03 01:47:00,63.0,63.0,29.85,SE,129,0.0,2.0,100,0.00,,FEW085,0.00,VWS V14.01,2013-06-03 05:47:00,
2013-06-03 01:52:00,63.1,63.1,29.86,SE,131,0.0,3.0,100,0.00,,FEW085,0.00,VWS V14.01,2013-06-03 05:52:00,
2013-06-03 01:57:00,62.9,62.9,29.85,SE,127,2.0,2.0,100,0.00,,FEW085,0.00,VWS V14.01,2013-06-03 05:57:00,
2013-06-03 02:02:00,62.9,62.9,29.85,SE,129,1.0,2.0,100,0.00,,FEW085,0.00,VWS V14.01,2013-06-03 06:02:00,
2013-06-03 02:07:00,62.7,62.7,29.85,SE,129,2.0,3.0,100,0.00,,,0.00,VWS V14.01,2013-06-03 06:07:00,
2013-06-03 02:12:00,62.7,62.7,29.84,SE,129,0.0,3.0,100,0.00,,,0.00,VWS V14.01,2013-06-03 06:12:00,
2013-06-03 02:17:00,62.7,62.7,29.84,SE,130,0.0,1.0,100,0.00,,,0.00,VWS V14.01,2013-06-03 06:17:00,
2013-06-03 02:22:00,62.6,62.6,29.84,SE,132,0.0,0.0,100,0.00,,,0.00,VWS V14.01,2013-06-03 06:22:00,
2013-06-03 02:27:00,62.6,62.6,29.84,SE,131,1.0,2.0,100,0.00,,,0.00,VWS V14.01,2013-06-03 06:27:00,
2013-06-03 02:32:00,62.6,62.6,29.84,SW,221,0.0,0.0,100,0.00,,,0.00,VWS V14.01,2013-06-03 06:32:00,
2013-06-03 02:37:00,62.6,62.6,29.84,South,178,0.0,4.0,100,0.00,,,0.00,VWS V14.01,2013-06-03 06:37:00,
2013-06-03 02:42:00,62.5,62.5,29.84,SE,125,3.0,3.0,100,0.00,,,0.00,VWS V14.01,2013-06-03 06:42:00,
2013-06-03 02:47:00,62.4,62.4,29.83,SSE,158,2.0,4.0,100,0.00,,,0.00,VWS V14.01,2013-06-03 06:47:00,
2013-06-03 02:52:00,62.3,62.3,29.83,SSE,156,3.0,5.0,100,0.00,,,0.00,VWS V14.01,2013-06-03 06:52:00,
2013-06-03 02:57:00,62.3,62.3,29.83,SSE,151,0.0,2.0,100,0.00,,,0.00,VWS V14.01,2013-06-03 06:57:00,
2013-06-03 03:02:00,62.1,62.1,29.83,ESE,116,0.0,3.0,100,0.00,,,0.00,VWS V14.01,2013-06-03 07:02:00,
2013-06-03 03:07:00,61.9,61.9,29.83,SSW,195,1.0,2.0,100,0.00,,,0.00,VWS V14.01,2013-06-03 07:07:00,
2013-06-03 03:12:00,62.1,62.1,29.83,SSE,163,5.0,5.0,100,0.00,,,0.00,VWS V14.01,2013-06-03 07:12:00,
2013-06-03 03:17:00,62.1,62.1,29.84,South,182,4.0,7.0,100,0.00,,,0.00,VWS V14.01,2013-06-03 07:17:00,
2013-06-03 03:22:00,62.1,62.1,29.85,SE,140,4.0,5.0,100,0.00,,,0.00,VWS V14.01,2013-06-03 07:22:00,
2013-06-03 03:27:00,61.9,61.9,29.84,SSE,167,2.0,7.0,100,0.00,,,0.00,VWS V14.01,2013-06-03 07:27:00,
2013-06-03 03:32:00,62.0,62.0,29.85,SSE,157,4.0,7.0,100,0.00,,,0.00,VWS V14.01,2013-06-03 07:32:00,
2013-06-03 03:37:00,61.9,61.9,29.85,SSW,202,1.0,4.0,100,0.00,,,0.00,VWS V14.01,2013-06-03 07:37:00,
2013-06-03 03:42:00,61.9,61.9,29.85,SSE,152,3.0,6.0,100,0.00,,,0.00,VWS V14.01,2013-06-03 07:42:00,
2013-06-03 03:47:00,61.9,61.9,29.85,SSW,201,0.0,2.0,100,0.00,,,0.00,VWS V14.01,2013-06-03 07:47:00,
2013-06-03 03:52:00,61.9,61.9,29.85,SSE,152,0.0,1.0,100,0.01,,,0.01,VWS V14.01,2013-06-03 07:52:00,
2013-06-03 03:56:00,62.0,62.0,29.85,SSW,193,5.0,5.0,100,0.01,,,0.01,VWS V14.01,2013-06-03 07:56:00,
2013-06-03 04:01:00,61.9,61.9,29.84,SSE,148,1.0,2.0,100,0.01,,,0.01,VWS V14.01,2013-06-03 08:01:00,
2013-06-03 04:06:00,62.1,62.1,29.85,SSE,168,1.0,3.0,100,0.01,,-RA,0.01,VWS V14.01,2013-06-03 08:06:00,
2013-06-03 04:11:00,62.1,62.1,29.85,SE,144,0.0,2.0,100,0.01,,-RA,0.01,VWS V14.01,2013-06-03 08:11:00,
2013-06-03 04:16:00,62.1,62.1,29.85,SSE,147,2.0,3.0,100,0.01,,-RA,0.01,VWS V14.01,2013-06-03 08:16:00,
2013-06-03 04:21:00,62.2,62.2,29.84,SSE,147,1.0,2.0,100,0.01,,-RA,0.01,VWS V14.01,2013-06-03 08:21:00,
2013-06-03 04:26:00,62.3,62.3,29.84,SE,142,1.0,2.0,100,0.01,,-RA,0.01,VWS V14.01,2013-06-03 08:26:00,
2013-06-03 04:31:00,62.2,62.2,29.85,SSE,151,1.0,2.0,100,0.01,,-RA,0.01,VWS V14.01,2013-06-03 08:31:00,
2013-06-03 04:36:00,62.2,62.2,29.85,SE,142,1.0,2.0,100,0.01,,-RA,0.01,VWS V14.01,2013-06-03 08:36:00,
2013-06-03 04:41:00,62.4,62.4,29.85,SE,146,0.0,0.0,100,0.01,,-RA,0.01,VWS V14.01,2013-06-03 08:41:00,
2013-06-03 04:46:00,62.4,62.4,29.85,South,186,1.0,4.0,100,0.02,,-RA,0.02,VWS V14.01,2013-06-03 08:46:00,
2013-06-03 04:51:00,62.4,62.4,29.85,South,174,0.0,0.0,100,0.02,,-RA,0.02,VWS V14.01,2013-06-03 08:51:00,
2013-06-03 04:57:00,62.6,62.6,29.85,South,174,0.0,3.0,100,0.02,,-RA,0.02,VWS V14.01,2013-06-03 08:57:00,
2013-06-03 05:02:00,62.6,62.6,29.85,South,170,1.0,4.0,100,0.03,,-RA,0.03,VWS V14.01,2013-06-03 09:02:00,
2013-06-03 05:07:00,62.5,62.5,29.85,SSE,165,0.0,2.0,100,0.02,,-RA,0.03,VWS V14.01,2013-06-03 09:07:00,
2013-06-03 05:12:00,62.5,62.5,29.85,South,173,1.0,2.0,100,0.02,,-RA,0.03,VWS V14.01,2013-06-03 09:12:00,
2013-06-03 05:17:00,62.5,62.5,29.86,SSE,166,0.0,1.0,100,0.03,,-RA,0.04,VWS V14.01,2013-06-03 09:17:00,
2013-06-03 05:22:00,62.5,62.5,29.85,SSE,162,1.0,2.0,100,0.04,,-RA,0.05,VWS V14.01,2013-06-03 09:22:00,
2013-06-03 05:27:00,62.6,62.6,29.86,SSE,158,0.0,1.0,100,0.05,,-RA,0.06,VWS V14.01,2013-06-03 09:27:00,
2013-06-03 05:32:00,62.7,62.7,29.85,SE,136,2.0,5.0,100,0.05,,-RA,0.06,VWS V14.01,2013-06-03 09:32:00,
2013-06-03 05:37:00,63.1,63.1,29.85,South,178,0.0,2.0,100,0.05,,-RA,0.06,VWS V14.01,2013-06-03 09:37:00,
2013-06-03 05:42:00,63.2,63.2,29.85,South,180,0.0,0.0,100,0.05,,-RA,0.06,VWS V14.01,2013-06-03 09:42:00,
2013-06-03 05:47:00,63.2,63.2,29.85,South,179,0.0,2.0,100,0.05,,-RA,0.06,VWS V14.01,2013-06-03 09:47:00,
2013-06-03 05:52:00,63.2,63.2,29.85,South,178,0.0,1.0,100,0.06,,-RA,0.07,VWS V14.01,2013-06-03 09:52:00,
2013-06-03 05:57:00,63.4,63.4,29.85,South,178,0.0,2.0,100,0.06,,-RA,0.07,VWS V14.01,2013-06-03 09:57:00,
2013-06-03 06:02:00,63.4,63.4,29.84,South,178,0.0,1.0,100,0.04,,-RA,0.07,VWS V14.01,2013-06-03 10:02:00,
2013-06-03 06:07:00,63.4,63.4,29.85,South,179,0.0,0.0,100,0.04,,-RA,0.07,VWS V14.01,2013-06-03 10:07:00,
2013-06-03 06:12:00,63.4,63.4,29.85,South,178,0.0,2.0,100,0.04,,-RA,0.07,VWS V14.01,2013-06-03 10:12:00,
2013-06-03 06:16:00,63.5,63.5,29.86,South,179,0.0,1.0,100,0.04,,-RA,0.07,VWS V14.01,2013-06-03 10:16:00,
2013-06-03 06:22:00,63.5,63.5,29.87,SSE,148,2.0,6.0,100,0.04,,-RA,0.07,VWS V14.01,2013-06-03 10:22:00,
2013-06-03 06:27:00,63.2,63.2,29.87,SE,139,1.0,4.0,100,0.04,,-RA,0.07,VWS V14.01,2013-06-03 10:27:00,
2013-06-03 06:32:00,62.9,62.9,29.87,SSE,164,5.0,7.0,100,0.05,,-RA,0.08,VWS V14.01,2013-06-03 10:32:00,
2013-06-03 06:37:00,62.6,62.6,29.87,South,175,1.0,4.0,100,0.05,,-RA,0.08,VWS V14.01,2013-06-03 10:37:00,
2013-06-03 06:42:00,62.5,62.5,29.87,South,169,0.0,7.0,100,0.05,,-RA,0.08,VWS V14.01,2013-06-03 10:42:00,
2013-06-03 06:47:00,62.3,62.3,29.87,SE,146,2.0,3.0,100,0.05,,-RA,0.08,VWS V14.01,2013-06-03 10:47:00,
2013-06-03 06:52:00,62.1,62.1,29.87,SSW,204,2.0,6.0,100,0.05,,-RA,0.08,VWS V14.01,2013-06-03 10:52:00,
2013-06-03 06:57:00,62.1,62.1,29.87,South,176,0.0,4.0,100,0.06,,-RA,0.09,VWS V14.01,2013-06-03 10:57:00,
2013-06-03 07:02:00,62.0,62.0,29.87,South,177,0.0,1.0,100,0.02,,-RA,0.09,VWS V14.01,2013-06-03 11:02:00,
2013-06-03 07:07:00,61.8,61.8,29.87,South,174,0.0,3.0,100,0.02,,-RA,0.09,VWS V14.01,2013-06-03 11:07:00,
2013-06-03 07:12:00,61.7,61.7,29.86,SSE,152,2.0,3.0,100,0.02,,-RA,0.09,VWS V14.01,2013-06-03 11:12:00,
2013-06-03 07:17:00,61.7,61.7,29.86,SE,137,2.0,3.0,100,0.02,,-RA,0.09,VWS V14.01,2013-06-03 11:17:00,
2013-06-03 07:22:00,61.7,61.7,29.86,SE,142,2.0,3.0,100,0.02,,-RA,0.09,VWS V14.01,2013-06-03 11:22:00,
2013-06-03 07:27:00,61.7,61.7,29.87,SE,141,4.0,5.0,100,0.02,,-RA,0.09,VWS V14.01,2013-06-03 11:27:00,
2013-06-03 07:32:00,61.7,61.7,29.86,SE,142,0.0,4.0,100,0.02,,-RA,0.09,VWS V14.01,2013-06-03 11:32:00,
2013-06-03 07:37:00,61.7,61.7,29.87,South,189,0.0,4.0,100,0.02,,-RA,0.09,VWS V14.01,2013-06-03 11:37:00,
2013-06-03 07:42:00,61.8,61.8,29.86,SSW,194,6.0,8.0,100,0.02,,-RA,0.09,VWS V14.01,2013-06-03 11:42:00,
2013-06-03 07:47:00,61.8,61.8,29.86,SSE,166,2.0,4.0,100,0.02,,-RA,0.09,VWS V14.01,2013-06-03 11:47:00,
2013-06-03 07:52:00,61.8,61.8,29.86,SSE,160,2.0,5.0,100,0.02,,-RA,0.09,VWS V14.01,2013-06-03 11:52:00,
2013-06-03 07:57:00,62.0,62.0,29.86,SE,136,2.0,6.0,100,0.02,,-RA,0.09,VWS V14.01,2013-06-03 11:57:00,
2013-06-03 08:02:00,62.0,62.0,29.86,SE,142,0.0,2.0,100,0.00,,-RA,0.09,VWS V14.01,2013-06-03 12:02:00,
2013-06-03 08:07:00,62.1,62.1,29.86,SE,138,2.0,2.0,100,0.00,,,0.09,VWS V14.01,2013-06-03 12:07:00,
2013-06-03 08:12:00,62.1,62.1,29.86,SE,131,4.0,4.0,100,0.00,,,0.09,VWS V14.01,2013-06-03 12:12:00,
2013-06-03 08:17:00,62.1,62.1,29.86,SW,223,4.0,4.0,100,0.00,,,0.09,VWS V14.01,2013-06-03 12:17:00,
2013-06-03 08:22:00,62.1,62.1,29.86,SSW,211,0.0,0.0,100,0.00,,,0.09,VWS V14.01,2013-06-03 12:22:00,
2013-06-03 08:27:00,62.1,62.1,29.86,South,175,0.0,5.0,100,0.00,,,0.09,VWS V14.01,2013-06-03 12:27:00,
2013-06-03 08:32:00,62.1,62.1,29.86,South,185,1.0,3.0,100,0.00,,,0.09,VWS V14.01,2013-06-03 12:32:00,
2013-06-03 08:37:00,62.3,62.3,29.86,South,169,1.0,6.0,100,0.00,,,0.09,VWS V14.01,2013-06-03 12:37:00,
2013-06-03 08:42:00,62.3,62.3,29.86,South,181,2.0,6.0,100,0.00,,,0.09,VWS V14.01,2013-06-03 12:42:00,
2013-06-03 08:47:00,62.4,62.4,29.87,South,179,3.0,3.0,100,0.00,,,0.09,VWS V14.01,2013-06-03 12:47:00,
2013-06-03 08:52:00,62.6,62.6,29.86,South,174,2.0,4.0,100,0.00,,,0.09,VWS V14.01,2013-06-03 12:52:00,
2013-06-03 08:57:00,62.6,62.6,29.87,South,173,4.0,4.0,100,0.00,,,0.09,VWS V14.01,2013-06-03 12:57:00,
2013-06-03 09:02:00,62.6,62.6,29.86,SSE,156,3.0,3.0,100,0.00,,,0.09,VWS V14.01,2013-06-03 13:02:00,
2013-06-03 09:07:00,62.7,62.7,29.86,SSE,155,3.0,3.0,100,0.00,,,0.09,VWS V14.01,2013-06-03 13:07:00,
2013-06-03 09:12:00,62.7,62.7,29.87,SE,139,1.0,1.0,100,0.00,,,0.09,VWS V14.01,2013-06-03 13:12:00,
2013-06-03 09:17:00,62.9,62.9,29.86,SE,139,0.0,3.0,100,0.00,,,0.09,VWS V14.01,2013-06-03 13:17:00,
2013-06-03 09:22:00,62.9,62.9,29.86,SE,140,2.0,5.0,100,0.00,,,0.09,VWS V14.01,2013-06-03 13:22:00,
2013-06-03 09:27:00,62.9,62.9,29.86,South,179,0.0,0.0,100,0.00,,,0.09,VWS V14.01,2013-06-03 13:27:00,
2013-06-03 09:32:00,62.9,62.9,29.86,SSE,148,2.0,3.0,100,0.00,,,0.09,VWS V14.01,2013-06-03 13:32:00,
2013-06-03 09:37:00,63.1,63.1,29.86,SSE,148,0.0,0.0,100,0.00,,,0.09,VWS V14.01,2013-06-03 13:37:00,
2013-06-03 09:42:00,63.1,63.1,29.87,SSE,153,0.0,0.0,100,0.00,,,0.09,VWS V14.01,2013-06-03 13:42:00,
2013-06-03 09:47:00,63.1,63.1,29.86,SSE,154,0.0,2.0,100,0.01,,,0.10,VWS V14.01,2013-06-03 13:47:00,
2013-06-03 09:52:00,63.2,63.2,29.86,SSE,147,0.0,2.0,100,0.02,,,0.11,VWS V14.01,2013-06-03 13:52:00,
2013-06-03 09:57:00,63.1,63.1,29.86,SSE,152,1.0,2.0,100,0.02,,,0.11,VWS V14.01,2013-06-03 13:57:00,
2013-06-03 10:02:00,63.1,63.1,29.86,South,175,5.0,5.0,100,0.03,,,0.12,VWS V14.01,2013-06-03 14:02:00,
2013-06-03 10:07:00,63.2,63.2,29.87,South,170,0.0,3.0,100,0.05,,RA,0.14,VWS V14.01,2013-06-03 14:07:00,
2013-06-03 10:12:00,63.0,63.0,29.88,North,6,0.0,5.0,100,0.09,,RA,0.18,VWS V14.01,2013-06-03 14:12:00,
2013-06-03 10:17:00,63.0,63.0,29.87,SW,218,1.0,2.0,100,0.26,,RA,0.35,VWS V14.01,2013-06-03 14:17:00,
2013-06-03 10:22:00,63.0,63.0,29.88,SW,217,0.0,0.0,100,0.41,,RA,0.50,VWS V14.01,2013-06-03 14:22:00,
2013-06-03 10:27:00,63.2,63.2,29.88,SW,214,0.0,0.0,100,0.52,,RA,0.61,VWS V14.01,2013-06-03 14:27:00,
2013-06-03 10:32:00,63.3,63.3,29.87,SSW,209,0.0,0.0,100,0.63,,RA,0.72,VWS V14.01,2013-06-03 14:32:00,
2013-06-03 10:37:00,63.3,63.3,29.87,SSW,208,0.0,0.0,100,0.69,,RA,0.78,VWS V14.01,2013-06-03 14:37:00,
2013-06-03 10:42:00,63.3,63.3,29.87,SW,220,0.0,0.0,100,0.72,,RA,0.81,VWS V14.01,2013-06-03 14:42:00,
2013-06-03 10:47:00,63.5,63.5,29.87,SSW,212,0.0,0.0,100,0.75,,RA,0.84,VWS V14.01,2013-06-03 14:47:00,
2013-06-03 10:52:00,63.5,63.5,29.87,SW,216,0.0,1.0,100,0.78,,RA,0.87,VWS V14.01,2013-06-03 14:52:00,
2013-06-03 10:57:00,63.5,63.5,29.86,SSW,213,0.0,0.0,100,0.82,,RA,0.91,VWS V14.01,2013-06-03 14:57:00,
2013-06-03 11:02:00,63.3,63.3,29.87,SW,214,0.0,0.0,100,0.84,,RA,0.93,VWS V14.01,2013-06-03 15:02:00,
2013-06-03 11:07:00,63.3,63.3,29.87,SW,219,0.0,0.0,100,0.84,, +RA,0.96,VWS V14.01,2013-06-03 15:07:00,
2013-06-03 11:12:00,63.4,63.4,29.87,SW,216,0.0,0.0,100,0.86,, +RA,0.98,VWS V14.01,2013-06-03 15:12:00,
2013-06-03 11:17:00,63.5,63.5,29.87,SW,215,0.0,0.0,100,0.88,, +RA,1.00,VWS V14.01,2013-06-03 15:17:00,
2013-06-03 11:22:00,63.6,63.6,29.87,SW,221,0.0,1.0,100,0.91,, +RA,1.03,VWS V14.01,2013-06-03 15:22:00,
2013-06-03 11:27:00,63.6,63.6,29.87,SW,221,2.0,3.0,100,0.92,, +RA,1.04,VWS V14.01,2013-06-03 15:27:00,
2013-06-03 11:32:00,63.8,63.8,29.86,SW,222,0.0,0.0,100,0.93,, +RA,1.05,VWS V14.01,2013-06-03 15:32:00,
2013-06-03 11:37:00,64.2,64.2,29.86,SW,223,0.0,0.0,100,0.94,, +RA,1.06,VWS V14.01,2013-06-03 15:37:00,
2013-06-03 11:42:00,64.3,64.3,29.87,SW,224,0.0,0.0,100,0.94,, +RA,1.06,VWS V14.01,2013-06-03 15:42:00,
2013-06-03 11:47:00,64.3,64.3,29.87,SW,214,0.0,0.0,100,0.94,, +RA,1.06,VWS V14.01,2013-06-03 15:47:00,
2013-06-03 11:52:00,64.5,64.5,29.87,SW,220,0.0,2.0,100,0.94,, +RA,1.06,VWS V14.01,2013-06-03 15:52:00,
2013-06-03 11:57:00,64.3,64.3,29.87,SW,224,0.0,0.0,100,0.94,, +RA,1.06,VWS V14.01,2013-06-03 15:57:00,
2013-06-03 12:02:00,64.5,64.5,29.87,SW,224,0.0,0.0,100,0.13,, +RA,1.06,VWS V14.01,2013-06-03 16:02:00,
2013-06-03 12:07:00,64.5,64.5,29.87,SW,224,0.0,2.0,100,0.13,,-RA,1.06,VWS V14.01,2013-06-03 16:07:00,
2013-06-03 12:12:00,64.8,64.8,29.87,SW,222,0.0,0.0,100,0.13,,-RA,1.06,VWS V14.01,2013-06-03 16:12:00,
2013-06-03 12:17:00,64.6,64.6,29.87,SW,215,0.0,0.0,100,0.13,,-RA,1.06,VWS V14.01,2013-06-03 16:17:00,
2013-06-03 12:22:00,64.7,64.7,29.86,SW,224,0.0,2.0,100,0.13,,-RA,1.06,VWS V14.01,2013-06-03 16:22:00,
2013-06-03 12:27:00,64.6,64.6,29.86,SW,230,0.0,3.0,100,0.13,,-RA,1.06,VWS V14.01,2013-06-03 16:27:00,
2013-06-03 12:32:00,65.0,65.0,29.86,West,274,3.0,3.0,100,0.14,,-RA,1.07,VWS V14.01,2013-06-03 16:32:00,
2013-06-03 12:37:00,64.9,64.9,29.86,West,280,1.0,1.0,100,0.14,,-RA,1.07,VWS V14.01,2013-06-03 16:37:00,
2013-06-03 12:42:00,65.2,65.2,29.87,North,0,0.0,3.0,100,0.14,,-RA,1.07,VWS V14.01,2013-06-03 16:42:00,
2013-06-03 12:47:00,65.3,65.3,29.86,North,0,0.0,1.0,100,0.14,,-RA,1.07,VWS V14.01,2013-06-03 16:47:00,
2013-06-03 12:52:00,65.1,65.1,29.87,North,0,0.0,1.0,100,0.14,,-RA,1.07,VWS V14.01,2013-06-03 16:52:00,
2013-06-03 12:57:00,65.8,65.8,29.86,North,4,1.0,1.0,100,0.14,,-RA,1.07,VWS V14.01,2013-06-03 16:57:00,
2013-06-03 13:02:00,66.1,66.1,29.87,North,4,0.0,1.0,100,0.01,,-RA,1.07,VWS V14.01,2013-06-03 17:02:00,
2013-06-03 13:07:00,65.4,65.4,29.86,North,4,0.0,1.0,100,0.01,,OVC013,1.07,VWS V14.01,2013-06-03 17:07:00,
2013-06-03 13:12:00,65.9,65.9,29.86,North,4,0.0,0.0,100,0.01,,OVC013,1.07,VWS V14.01,2013-06-03 17:12:00,
2013-06-03 13:17:00,67.1,67.1,29.85,North,3,0.0,0.0,100,0.01,,OVC013,1.07,VWS V14.01,2013-06-03 17:17:00,
2013-06-03 13:22:00,67.6,67.6,29.86,North,3,0.0,1.0,100,0.01,,OVC013,1.07,VWS V14.01,2013-06-03 17:22:00,
2013-06-03 13:27:00,68.1,68.1,29.86,SSW,202,1.0,3.0,100,0.01,,OVC013,1.07,VWS V14.01,2013-06-03 17:27:00,
2013-06-03 13:32:00,68.1,68.1,29.85,SSW,200,0.0,0.0,100,0.01,,OVC013,1.07,VWS V14.01,2013-06-03 17:32:00,
2013-06-03 13:37:00,68.7,68.7,29.85,SSE,166,1.0,1.0,100,0.01,,OVC013,1.07,VWS V14.01,2013-06-03 17:37:00,
2013-06-03 13:42:00,69.2,69.2,29.85,SSE,163,0.0,1.0,100,0.01,,OVC013,1.07,VWS V14.01,2013-06-03 17:42:00,
2013-06-03 13:47:00,69.0,69.0,29.85,North,4,0.0,2.0,100,0.01,,OVC013,1.07,VWS V14.01,2013-06-03 17:47:00,
2013-06-03 13:52:00,69.0,69.0,29.85,North,4,0.0,1.0,100,0.01,,OVC013,1.07,VWS V14.01,2013-06-03 17:52:00,
2013-06-03 13:57:00,69.3,69.3,29.84,North,4,0.0,2.0,100,0.01,,OVC013,1.07,VWS V14.01,2013-06-03 17:57:00,
2013-06-03 14:02:00,69.8,69.8,29.84,North,4,0.0,0.0,100,0.00,,OVC013,1.07,VWS V14.01,2013-06-03 18:02:00,
2013-06-03 14:07:00,70.8,70.8,29.84,North,4,0.0,2.0,100,0.00,,SCT013,1.07,VWS V14.01,2013-06-03 18:07:00,
2013-06-03 14:12:00,71.1,71.1,29.84,North,4,0.0,0.0,100,0.00,,SCT013,1.07,VWS V14.01,2013-06-03 18:12:00,
2013-06-03 14:17:00,71.6,71.3,29.84,ESE,111,0.0,5.0,99,0.00,,SCT013,1.07,VWS V14.01,2013-06-03 18:17:00,
2013-06-03 14:22:00,71.5,70.9,29.84,East,80,0.0,0.0,98,0.00,,SCT013,1.07,VWS V14.01,2013-06-03 18:22:00,
2013-06-03 14:27:00,72.0,71.1,29.84,ENE,72,0.0,0.0,97,0.00,,SCT013,1.07,VWS V14.01,2013-06-03 18:27:00,
2013-06-03 14:32:00,72.7,72.1,29.84,ENE,74,0.0,1.0,98,0.00,,SCT013,1.07,VWS V14.01,2013-06-03 18:32:00,
2013-06-03 14:37:00,73.7,73.1,29.84,East,82,0.0,0.0,98,0.00,,SCT013,1.07,VWS V14.01,2013-06-03 18:37:00,
2013-06-03 14:42:00,74.2,72.1,29.84,SSW,211,4.0,5.0,93,0.00,,SCT013,1.07,VWS V14.01,2013-06-03 18:42:00,
2013-06-03 14:47:00,73.3,69.9,29.85,NW,304,1.0,2.0,89,0.00,,SCT013,1.07,VWS V14.01,2013-06-03 18:47:00,
2013-06-03 14:52:00,73.0,69.9,29.85,WNW,293,0.0,0.0,90,0.00,,SCT013,1.07,VWS V14.01,2013-06-03 18:52:00,
2013-06-03 14:57:00,73.3,70.5,29.85,WNW,293,0.0,0.0,91,0.00,,SCT013,1.07,VWS V14.01,2013-06-03 18:57:00,
2013-06-03 15:02:00,73.7,70.6,29.84,WNW,293,0.0,0.0,90,0.00,,SCT013,1.07,VWS V14.01,2013-06-03 19:02:00,
2013-06-03 15:07:00,74.0,71.2,29.85,WNW,287,2.0,3.0,91,0.00,,CLR,1.07,VWS V14.01,2013-06-03 19:07:00,
2013-06-03 15:12:00,74.4,70.6,29.85,East,80,0.0,3.0,88,0.00,,CLR,1.07,VWS V14.01,2013-06-03 19:12:00,
2013-06-03 15:17:00,74.2,70.8,29.85,SSW,197,4.0,4.0,89,0.00,,CLR,1.07,VWS V14.01,2013-06-03 19:17:00,
2013-06-03 15:22:00,73.5,69.7,29.85,SE,135,2.0,4.0,88,0.00,,CLR,1.07,VWS V14.01,2013-06-03 19:22:00,
2013-06-03 15:27:00,73.3,70.2,29.85,SE,143,4.0,5.0,90,0.00,,CLR,1.07,VWS V14.01,2013-06-03 19:27:00,
2013-06-03 15:32:00,72.7,70.2,29.85,SSE,153,1.0,4.0,92,0.00,,CLR,1.07,VWS V14.01,2013-06-03 19:32:00,
2013-06-03 15:37:00,71.6,70.1,29.85,SE,137,0.0,5.0,95,0.00,,CLR,1.07,VWS V14.01,2013-06-03 19:37:00,
2013-06-03 15:42:00,71.0,69.8,29.85,South,180,3.0,4.0,96,0.00,,CLR,1.07,VWS V14.01,2013-06-03 19:42:00,
2013-06-03 15:47:00,70.6,70.0,29.85,SSW,196,2.0,5.0,98,0.00,,CLR,1.07,VWS V14.01,2013-06-03 19:47:00,
2013-06-03 15:52:00,70.3,69.4,29.85,South,181,4.0,6.0,97,0.00,,CLR,1.07,VWS V14.01,2013-06-03 19:52:00,
2013-06-03 15:57:00,70.0,69.1,29.84,SW,219,2.0,8.0,97,0.00,,CLR,1.07,VWS V14.01,2013-06-03 19:57:00,
2013-06-03 16:02:00,70.0,69.4,29.84,ENE,66,1.0,4.0,98,0.00,,CLR,1.07,VWS V14.01,2013-06-03 20:02:00,
2013-06-03 16:07:00,69.8,69.2,29.84,ESE,106,0.0,3.0,98,0.00,,BKN033,1.07,VWS V14.01,2013-06-03 20:07:00,
2013-06-03 16:12:00,69.7,69.1,29.84,South,169,3.0,5.0,98,0.00,,BKN033,1.07,VWS V14.01,2013-06-03 20:12:00,
2013-06-03 16:17:00,69.7,69.1,29.85,SSW,196,1.0,3.0,98,0.00,,BKN033,1.07,VWS V14.01,2013-06-03 20:17:00,
2013-06-03 16:22:00,69.7,69.1,29.84,SE,130,0.0,4.0,98,0.00,,BKN033,1.07,VWS V14.01,2013-06-03 20:22:00,
2013-06-03 16:27:00,69.3,69.0,29.84,South,183,4.0,5.0,99,0.00,,BKN033,1.07,VWS V14.01,2013-06-03 20:27:00,
2013-06-03 16:32:00,69.0,68.7,29.84,South,177,2.0,3.0,99,0.00,,BKN033,1.07,VWS V14.01,2013-06-03 20:32:00,
2013-06-03 16:37:00,68.7,68.4,29.84,SSW,210,0.0,2.0,99,0.00,,BKN033,1.07,VWS V14.01,2013-06-03 20:37:00,
2013-06-03 16:42:00,68.5,68.5,29.84,SE,145,1.0,4.0,100,0.00,,BKN033,1.07,VWS V14.01,2013-06-03 20:42:00,
2013-06-03 16:47:00,68.5,68.5,29.85,SE,135,0.0,3.0,100,0.00,,BKN033,1.07,VWS V14.01,2013-06-03 20:47:00,
2013-06-03 16:52:00,68.5,68.5,29.84,SE,135,0.0,0.0,100,0.00,,BKN033,1.07,VWS V14.01,2013-06-03 20:52:00,
2013-06-03 16:57:00,68.5,68.5,29.84,SE,139,0.0,0.0,100,0.00,,BKN033,1.07,VWS V14.01,2013-06-03 20:57:00,
2013-06-03 17:02:00,68.4,68.1,29.84,SE,141,1.0,1.0,99,0.00,,BKN033,1.07,VWS V14.01,2013-06-03 21:02:00,
2013-06-03 17:07:00,68.0,67.7,29.83,SE,133,0.0,3.0,99,0.00,,SCT008,1.07,VWS V14.01,2013-06-03 21:07:00,
2013-06-03 17:12:00,68.2,68.2,29.84,SE,140,0.0,0.0,100,0.00,,SCT008,1.07,VWS V14.01,2013-06-03 21:12:00,
2013-06-03 17:17:00,68.5,68.2,29.84,SE,141,0.0,0.0,99,0.00,,SCT008,1.07,VWS V14.01,2013-06-03 21:17:00,
2013-06-03 17:22:00,68.7,68.1,29.83,SE,138,0.0,0.0,98,0.00,,SCT008,1.07,VWS V14.01,2013-06-03 21:22:00,
2013-06-03 17:27:00,68.5,67.6,29.83,SE,138,0.0,2.0,97,0.00,,SCT008,1.07,VWS V14.01,2013-06-03 21:27:00,
2013-06-03 17:32:00,68.5,67.9,29.83,SSE,162,1.0,2.0,98,0.00,,SCT008,1.07,VWS V14.01,2013-06-03 21:32:00,
2013-06-03 17:37:00,68.5,67.9,29.83,SSE,165,0.0,3.0,98,0.00,,SCT008,1.07,VWS V14.01,2013-06-03 21:37:00,
2013-06-03 17:42:00,68.4,67.8,29.83,SSE,164,1.0,1.0,98,0.00,,SCT008,1.07,VWS V14.01,2013-06-03 21:42:00,
2013-06-03 17:47:00,68.4,68.1,29.83,SSE,167,0.0,4.0,99,0.00,,SCT008,1.07,VWS V14.01,2013-06-03 21:47:00,
2013-06-03 17:52:00,68.4,68.1,29.82,SSE,166,0.0,3.0,99,0.00,,SCT008,1.07,VWS V14.01,2013-06-03 21:52:00,
2013-06-03 17:57:00,68.3,68.0,29.82,South,188,3.0,3.0,99,0.00,,SCT008,1.07,VWS V14.01,2013-06-03 21:57:00,
2013-06-03 18:02:00,68.6,68.3,29.82,South,181,0.0,1.0,99,0.00,,SCT008,1.07,VWS V14.01,2013-06-03 22:02:00,
2013-06-03 18:07:00,68.2,67.9,29.83,South,178,0.0,1.0,99,0.00,,CLR,1.07,VWS V14.01,2013-06-03 22:07:00,
2013-06-03 18:12:00,68.4,68.1,29.82,South,180,0.0,1.0,99,0.00,,CLR,1.07,VWS V14.01,2013-06-03 22:12:00,
2013-06-03 18:17:00,68.2,67.9,29.82,South,175,0.0,2.0,99,0.00,,CLR,1.07,VWS V14.01,2013-06-03 22:17:00,
2013-06-03 18:22:00,68.0,67.7,29.83,South,177,0.0,3.0,99,0.00,,CLR,1.07,VWS V14.01,2013-06-03 22:22:00,
2013-06-03 18:27:00,68.1,67.8,29.83,South,184,1.0,2.0,99,0.00,,CLR,1.07,VWS V14.01,2013-06-03 22:27:00,
2013-06-03 18:32:00,68.0,67.7,29.83,South,191,2.0,2.0,99,0.00,,CLR,1.07,VWS V14.01,2013-06-03 22:32:00,
2013-06-03 18:37:00,67.9,67.6,29.83,South,190,0.0,2.0,99,0.00,,CLR,1.07,VWS V14.01,2013-06-03 22:37:00,
2013-06-03 18:42:00,68.0,68.0,29.83,South,190,2.0,2.0,100,0.00,,CLR,1.07,VWS V14.01,2013-06-03 22:42:00,
2013-06-03 18:47:00,68.0,68.0,29.83,East,95,0.0,2.0,100,0.00,,CLR,1.07,VWS V14.01,2013-06-03 22:47:00,
2013-06-03 18:52:00,67.9,67.9,29.83,South,179,0.0,0.0,100,0.00,,CLR,1.07,VWS V14.01,2013-06-03 22:52:00,
2013-06-03 18:57:00,67.7,67.7,29.83,SSE,166,1.0,2.0,100,0.00,,CLR,1.07,VWS V14.01,2013-06-03 22:57:00,
2013-06-03 19:02:00,67.5,67.5,29.83,South,169,2.0,3.0,100,0.00,,CLR,1.07,VWS V14.01,2013-06-03 23:02:00,
2013-06-03 19:07:00,67.4,67.4,29.83,SSE,167,0.0,2.0,100,0.00,,CLR,1.07,VWS V14.01,2013-06-03 23:07:00,
2013-06-03 19:12:00,67.4,67.4,29.84,SSW,194,2.0,4.0,100,0.00,,CLR,1.07,VWS V14.01,2013-06-03 23:12:00,
2013-06-03 19:17:00,67.4,67.4,29.83,SSW,198,1.0,1.0,100,0.00,,CLR,1.07,VWS V14.01,2013-06-03 23:17:00,
2013-06-03 19:22:00,67.4,67.4,29.83,SE,146,0.0,0.0,100,0.00,,CLR,1.07,VWS V14.01,2013-06-03 23:22:00,
2013-06-03 19:27:00,67.5,67.5,29.84,SE,146,0.0,3.0,100,0.00,,CLR,1.07,VWS V14.01,2013-06-03 23:27:00,
2013-06-03 19:32:00,67.6,67.6,29.84,SSE,147,0.0,2.0,100,0.00,,CLR,1.07,VWS V14.01,2013-06-03 23:32:00,
2013-06-03 19:37:00,67.7,67.7,29.84,SE,146,0.0,2.0,100,0.00,,CLR,1.07,VWS V14.01,2013-06-03 23:37:00,
2013-06-03 19:42:00,67.5,67.5,29.84,SSE,147,1.0,2.0,100,0.00,,CLR,1.07,VWS V14.01,2013-06-03 23:42:00,
2013-06-03 19:47:00,67.7,67.7,29.84,SE,146,0.0,2.0,100,0.00,,CLR,1.07,VWS V14.01,2013-06-03 23:47:00,
2013-06-03 19:52:00,67.7,67.7,29.84,SSE,149,0.0,1.0,100,0.00,,CLR,1.07,VWS V14.01,2013-06-03 23:52:00,
2013-06-03 19:57:00,67.6,67.6,29.84,SE,145,1.0,1.0,100,0.00,,CLR,1.07,VWS V14.01,2013-06-03 23:57:00,
2013-06-03 20:02:00,67.7,67.7,29.84,SE,144,0.0,0.0,100,0.00,,CLR,1.07,VWS V14.01,2013-06-04 00:02:00,
2013-06-03 20:07:00,67.4,67.4,29.84,SE,142,0.0,1.0,100,0.00,,FEW060,1.07,VWS V14.01,2013-06-04 00:07:00,
2013-06-03 20:12:00,67.2,67.2,29.84,SE,140,0.0,1.0,100,0.00,,FEW060,1.07,VWS V14.01,2013-06-04 00:12:00,
2013-06-03 20:17:00,67.0,67.0,29.84,SSE,148,0.0,1.0,100,0.00,,FEW060,1.07,VWS V14.01,2013-06-04 00:17:00,
2013-06-03 20:22:00,67.0,67.0,29.84,SSE,150,1.0,2.0,100,0.00,,FEW060,1.07,VWS V14.01,2013-06-04 00:22:00,
2013-06-03 20:27:00,66.7,66.7,29.84,SSE,150,2.0,2.0,100,0.00,,FEW060,1.07,VWS V14.01,2013-06-04 00:27:00,
2013-06-03 20:32:00,66.7,66.7,29.84,SE,146,0.0,0.0,100,0.00,,FEW060,1.07,VWS V14.01,2013-06-04 00:32:00,
2013-06-03 20:37:00,66.6,66.6,29.84,SSE,152,0.0,0.0,100,0.00,,FEW060,1.07,VWS V14.01,2013-06-04 00:37:00,
2013-06-03 20:42:00,66.4,66.4,29.84,SE,146,0.0,0.0,100,0.00,,FEW060,1.07,VWS V14.01,2013-06-04 00:42:00,
2013-06-03 20:47:00,66.2,66.2,29.84,SSE,149,0.0,0.0,100,0.00,,FEW060,1.07,VWS V14.01,2013-06-04 00:47:00,
2013-06-03 20:52:00,66.0,66.0,29.84,SE,140,0.0,0.0,100,0.00,,FEW060,1.07,VWS V14.01,2013-06-04 00:52:00,
2013-06-03 20:57:00,65.9,65.9,29.84,SSE,155,0.0,0.0,100,0.00,,FEW060,1.07,VWS V14.01,2013-06-04 00:57:00,
2013-06-03 21:02:00,65.9,65.9,29.84,SSE,158,0.0,0.0,100,0.00,,FEW060,1.07,VWS V14.01,2013-06-04 01:02:00,
2013-06-03 21:07:00,65.7,65.7,29.85,SSE,154,0.0,0.0,100,0.00,,,1.07,VWS V14.01,2013-06-04 01:07:00,
2013-06-03 21:12:00,65.6,65.6,29.85,SSE,158,0.0,0.0,100,0.00,,,1.07,VWS V14.01,2013-06-04 01:12:00,
2013-06-03 21:17:00,65.4,65.4,29.85,SSE,160,0.0,0.0,100,0.00,,,1.07,VWS V14.01,2013-06-04 01:17:00,
2013-06-03 21:22:00,65.4,65.4,29.85,SSE,152,0.0,0.0,100,0.00,,,1.07,VWS V14.01,2013-06-04 01:22:00,
2013-06-03 21:27:00,65.3,65.3,29.85,SSE,148,0.0,1.0,100,0.00,,,1.07,VWS V14.01,2013-06-04 01:27:00,
2013-06-03 21:32:00,65.3,65.3,29.85,SSE,148,0.0,0.0,100,0.00,,,1.07,VWS V14.01,2013-06-04 01:32:00,
2013-06-03 21:37:00,65.3,65.3,29.85,SSE,151,0.0,0.0,100,0.00,,,1.07,VWS V14.01,2013-06-04 01:37:00,
2013-06-03 21:42:00,65.1,65.1,29.85,SSE,152,0.0,0.0,100,0.00,,,1.07,VWS V14.01,2013-06-04 01:42:00,
2013-06-03 21:47:00,64.8,64.8,29.86,SSE,152,0.0,0.0,100,0.00,,,1.07,VWS V14.01,2013-06-04 01:47:00,
2013-06-03 21:52:00,64.8,64.8,29.86,SSE,156,0.0,2.0,100,0.00,,,1.07,VWS V14.01,2013-06-04 01:52:00,
2013-06-03 21:57:00,64.8,64.8,29.86,SSE,156,0.0,0.0,100,0.00,,,1.07,VWS V14.01,2013-06-04 01:57:00,
2013-06-03 22:02:00,64.7,64.7,29.86,SSE,158,0.0,0.0,100,0.00,,,1.07,VWS V14.01,2013-06-04 02:02:00,
2013-06-03 22:07:00,64.5,64.5,29.86,SSE,154,0.0,0.0,100,0.00,,,1.07,VWS V14.01,2013-06-04 02:07:00,
2013-06-03 22:12:00,64.4,64.4,29.86,SSE,157,0.0,0.0,100,0.00,,,1.07,VWS V14.01,2013-06-04 02:12:00,
2013-06-03 22:17:00,64.4,64.4,29.86,SSE,156,0.0,0.0,100,0.00,,,1.07,VWS V14.01,2013-06-04 02:17:00,
2013-06-03 22:22:00,64.5,64.5,29.86,SSE,157,0.0,0.0,100,0.00,,,1.07,VWS V14.01,2013-06-04 02:22:00,
2013-06-03 22:27:00,64.5,64.5,29.86,SSE,159,0.0,0.0,100,0.00,,,1.07,VWS V14.01,2013-06-04 02:27:00,
2013-06-03 22:32:00,64.5,64.5,29.86,SSE,158,3.0,3.0,100,0.00,,,1.07,VWS V14.01,2013-06-04 02:32:00,
2013-06-03 22:37:00,64.2,64.2,29.87,WSW,245,0.0,3.0,100,0.00,,,1.07,VWS V14.01,2013-06-04 02:37:00,
2013-06-03 22:42:00,63.6,63.6,29.87,West,262,0.0,2.0,100,0.00,,,1.07,VWS V14.01,2013-06-04 02:42:00,
2013-06-03 22:47:00,63.0,63.0,29.87,WSW,238,0.0,2.0,100,0.00,,,1.07,VWS V14.01,2013-06-04 02:47:00,
2013-06-03 22:52:00,62.7,62.7,29.87,SW,234,1.0,1.0,100,0.00,,,1.07,VWS V14.01,2013-06-04 02:52:00,
2013-06-03 22:57:00,62.4,62.4,29.86,West,277,2.0,4.0,100,0.00,,,1.07,VWS V14.01,2013-06-04 02:57:00,
2013-06-03 23:02:00,62.4,62.4,29.86,North,6,1.0,2.0,100,0.00,,,1.07,VWS V14.01,2013-06-04 03:02:00,
2013-06-03 23:07:00,62.4,62.4,29.86,NE,41,0.0,1.0,100,0.00,,BKN095,1.07,VWS V14.01,2013-06-04 03:07:00,
2013-06-03 23:12:00,62.4,62.4,29.86,NNE,30,0.0,8.0,100,0.00,,BKN095,1.07,VWS V14.01,2013-06-04 03:12:00,
2013-06-03 23:17:00,62.5,61.9,29.87,NNE,21,0.0,1.0,98,0.00,,BKN095,1.07,VWS V14.01,2013-06-04 03:17:00,
2013-06-03 23:22:00,62.4,61.5,29.87,West,259,0.0,2.0,97,0.00,,BKN095,1.07,VWS V14.01,2013-06-04 03:22:00,
2013-06-03 23:27:00,62.3,61.4,29.87,NNE,13,0.0,0.0,97,0.00,,BKN095,1.07,VWS V14.01,2013-06-04 03:27:00,
2013-06-03 23:32:00,62.1,61.0,29.87,NNE,13,1.0,1.0,96,0.00,,BKN095,1.07,VWS V14.01,2013-06-04 03:32:00,
2013-06-03 23:37:00,62.0,60.8,29.87,NNE,29,0.0,2.0,96,0.00,,BKN095,1.07,VWS V14.01,2013-06-04 03:37:00,
2013-06-03 23:42:00,61.8,61.2,29.87,NNE,27,0.0,0.0,98,0.00,,BKN095,1.07,VWS V14.01,2013-06-04 03:42:00,
2013-06-03 23:47:00,61.4,60.8,29.87,North,9,1.0,2.0,98,0.00,,BKN095,1.07,VWS V14.01,2013-06-04 03:47:00,
2013-06-03 23:52:00,60.9,60.0,29.88,West,279,0.0,4.0,97,0.00,,BKN095,1.07,VWS V14.01,2013-06-04 03:52:00,
2013-06-03 23:57:00,60.7,59.3,29.88,West,267,1.0,4.0,95,0.00,,BKN095,1.07,VWS V14.01,2013-06-04 03:57:00,